Weather History for PAWG - February, 2014

Change the Weather History Date:

Friday, February 14, 2014

  Actual Average Record
Temperature  
Mean Temperature 38 °F -  
Max Temperature 41 °F 38 °F 49 °F (1991)
Min Temperature 35 °F 25 °F -2 °F (1954)
Degree Days  
Heating Degree Days 27    
Moisture  
Dew Point 30 °F    
Average Humidity 70    
Maximum Humidity 81    
Minimum Humidity 61    
Precipitation  
Precipitation 0.17 in - - ()
Sea Level Pressure  
Sea Level Pressure 29.28 in    
Wind  
Wind Speed 17 mph (SE)    
Max Wind Speed 25 mph    
Max Gust Speed 30 mph    
Visibility 10 miles    
Events      
Averages and records for this station are not official NWS values.
T = Trace of Precipitation, MM = Missing Value Source: NWS Daily Summary

Daily Weather History Graph

Daily Weather History Graph

Search for Another Location

Airport or City:

Trip Planner

Search our weather history database for the weather conditions in past years. The results will help you decide how hot, cold, wet, or windy it might be!

Date:

Astronomy

Feb. 14, 2014 Rise Set
Actual Time 7:17 AM AKST 4:50 PM AKST
Civil Twilight 6:38 AM AKST 5:29 PM AKST
Nautical Twilight 5:54 AM AKST 6:13 PM AKST
Astronomical Twilight 5:10 AM AKST 6:57 PM AKST
Moon 5:11 PM AKST (2/14) 6:41 AM AKST (2/14)
Length of Visible Light 10h 51m
Length of Day
9h 32m
Full, 100% of the Moon is Illuminated
Feb 14
Full
Feb 14
Full
Feb 22
Last Quarter
Feb 28
New
Mar 8
First Quarter

Hourly Weather History & Observations

Time (AKST) Temp. Windchill Dew Point Humidity Pressure Visibility Wind Dir Wind Speed Gust Speed Precip Events Conditions
12:16 AM 39.2 °F 28.3 °F 30.2 °F 70% 29.17 in 10.0 mi SE 25.3 mph 28.8 mph 0.01 in   Overcast
12:36 AM 39.2 °F 29.3 °F 30.2 °F 70% 29.15 in 9.0 mi SE 20.7 mph 27.6 mph 0.01 in   Overcast
12:56 AM 39.2 °F 29.3 °F 30.2 °F 70% 29.13 in 10.0 mi SE 20.7 mph 28.8 mph 0.01 in   Overcast
1:16 AM 39.2 °F 29.3 °F 30.2 °F 70% 29.12 in 10.0 mi SE 20.7 mph 27.6 mph N/A   Overcast
1:36 AM 39.2 °F 29.8 °F 30.2 °F 70% 29.11 in 10.0 mi SE 18.4 mph 29.9 mph N/A   Overcast
1:56 AM 39.2 °F 29.6 °F 30.2 °F 70% 29.09 in 10.0 mi SE 19.6 mph 27.6 mph N/A   Overcast
2:16 AM 39.2 °F 29.3 °F 30.2 °F 70% 29.09 in 10.0 mi SE 20.7 mph 27.6 mph N/A   Overcast
2:36 AM 39.2 °F 30.2 °F 30.2 °F 70% 29.08 in 10.0 mi SE 17.3 mph 25.3 mph N/A   Overcast
2:56 AM 39.2 °F 29.6 °F 30.2 °F 70% 29.06 in 8.0 mi SE 19.6 mph 27.6 mph N/A   Overcast
3:16 AM 39.2 °F 30.8 °F 30.2 °F 70% 29.04 in 10.0 mi SE 15.0 mph 25.3 mph 0.01 in   Overcast
3:36 AM 39.2 °F 30.5 °F 30.2 °F 70% 29.03 in 10.0 mi SE 16.1 mph 20.7 mph 0.01 in   Overcast
3:56 AM 39.2 °F 31.2 °F 32.0 °F 75% 29.02 in 10.0 mi ESE 13.8 mph 20.7 mph 0.01 in   Overcast
4:16 AM 39.2 °F 30.8 °F 30.2 °F 70% 29.01 in 10.0 mi SE 15.0 mph - N/A   Overcast
4:36 AM 39.2 °F 32.0 °F 32.0 °F 75% 29.01 in 10.0 mi ESE 11.5 mph - N/A   Overcast
4:56 AM 39.2 °F 30.8 °F 32.0 °F 75% 29.01 in 10.0 mi SE 15.0 mph 19.6 mph N/A   Overcast
5:16 AM 39.2 °F 29.8 °F 30.2 °F 70% 29.00 in 10.0 mi SE 18.4 mph 25.3 mph N/A   Overcast
5:36 AM 39.2 °F 30.2 °F 30.2 °F 70% 29.00 in 10.0 mi SE 17.3 mph 21.9 mph 0.01 in   Overcast
5:56 AM 39.2 °F 30.2 °F 30.2 °F 70% 29.01 in 10.0 mi SE 17.3 mph - 0.02 in   Overcast
6:16 AM 39.2 °F 29.8 °F 30.2 °F 70% 29.00 in 10.0 mi SE 18.4 mph - N/A   Overcast
6:36 AM 39.2 °F 30.2 °F 30.2 °F 70% 29.00 in 10.0 mi SE 17.3 mph - N/A   Overcast
6:56 AM 39.2 °F 30.8 °F 30.2 °F 70% 29.01 in 10.0 mi SE 15.0 mph - N/A   Overcast
7:16 AM 39.2 °F 30.5 °F 30.2 °F 70% 29.00 in 10.0 mi ESE 16.1 mph 21.9 mph N/A   Overcast
7:36 AM 39.2 °F 31.6 °F 32.0 °F 75% 29.02 in 10.0 mi SE 12.7 mph - N/A   Overcast
7:56 AM 39.2 °F 31.2 °F 32.0 °F 75% 29.02 in 10.0 mi SE 13.8 mph 17.3 mph N/A   Overcast
8:16 AM 41.0 °F 33.5 °F 30.2 °F 65% 29.02 in 10.0 mi SE 13.8 mph 21.9 mph N/A   Mostly Cloudy
8:36 AM 41.0 °F 33.1 °F 32.0 °F 70% 29.03 in 10.0 mi SSE 15.0 mph 21.9 mph N/A   Mostly Cloudy
8:56 AM 35.6 °F 31.7 °F 28.4 °F 75% 29.08 in 10.0 mi WNW 4.6 mph - 0.01 in   Mostly Cloudy
9:16 AM 37.4 °F 29.8 °F 30.2 °F 75% 29.11 in 10.0 mi SW 11.5 mph 17.3 mph 0.05 in   Overcast
9:36 AM 37.4 °F 27.8 °F 30.2 °F 75% 29.14 in 10.0 mi South 17.3 mph 23.0 mph 0.07 in   Overcast
9:56 AM 37.4 °F 28.2 °F 28.4 °F 70% 29.15 in 10.0 mi South 16.1 mph 25.3 mph 0.08 in   Overcast
10:16 AM 37.4 °F 29.8 °F 28.4 °F 70% 29.18 in 10.0 mi SSW 11.5 mph 20.7 mph N/A   Overcast
10:36 AM 37.4 °F 29.3 °F 28.4 °F 70% 29.20 in 10.0 mi South 12.7 mph - N/A   Overcast
10:56 AM 37.4 °F 30.8 °F 28.4 °F 70% 29.23 in 10.0 mi SSW 9.2 mph - N/A   Overcast
11:16 AM 37.4 °F 29.8 °F 28.4 °F 70% 29.25 in 10.0 mi SSW 11.5 mph 16.1 mph N/A   Overcast
11:36 AM 37.4 °F 32.1 °F 28.4 °F 70% 29.28 in 10.0 mi SSW 6.9 mph - N/A   Overcast
11:56 AM 39.2 °F 33.0 °F 28.4 °F 65% 29.30 in 10.0 mi South 9.2 mph 19.6 mph N/A   Overcast
12:16 PM 39.2 °F 34.2 °F 30.2 °F 70% 29.32 in 10.0 mi SSW 6.9 mph - N/A   Overcast
12:36 PM 39.2 °F 31.6 °F 28.4 °F 65% 29.34 in 10.0 mi SSW 12.7 mph 16.1 mph N/A   Overcast
12:56 PM 37.4 °F 28.2 °F 28.4 °F 70% 29.37 in 10.0 mi SSW 16.1 mph 21.9 mph N/A   Overcast
1:16 PM 39.2 °F 32.5 °F 28.4 °F 65% 29.39 in 10.0 mi SW 10.4 mph 16.1 mph N/A   Overcast
1:36 PM 39.2 °F 33.0 °F 26.6 °F 61% 29.40 in 10.0 mi SSW 9.2 mph 16.1 mph N/A   Overcast
1:56 PM 39.2 °F 34.2 °F 26.6 °F 61% 29.43 in 10.0 mi South 6.9 mph - N/A   Mostly Cloudy
2:16 PM 39.2 °F 34.2 °F 26.6 °F 61% 29.44 in 10.0 mi SSE 6.9 mph - N/A   Mostly Cloudy
2:36 PM 39.2 °F 37.0 °F 28.4 °F 65% 29.45 in 10.0 mi SE 3.5 mph - N/A   Mostly Cloudy
2:56 PM 37.4 °F 33.8 °F 28.4 °F 70% 29.46 in 10.0 mi South 4.6 mph - N/A   Mostly Cloudy
3:16 PM 39.2 °F 34.2 °F 28.4 °F 65% 29.47 in 10.0 mi SE 6.9 mph - N/A   Mostly Cloudy
3:36 PM 39.2 °F 33.0 °F 28.4 °F 65% 29.48 in 10.0 mi SSE 9.2 mph - N/A   Mostly Cloudy
3:56 PM 39.2 °F 30.8 °F 28.4 °F 65% 29.47 in 10.0 mi ESE 15.0 mph 20.7 mph N/A   Mostly Cloudy
4:16 PM 39.2 °F 30.5 °F 30.2 °F 70% 29.48 in 10.0 mi ESE 16.1 mph - N/A   Mostly Cloudy
4:36 PM 39.2 °F 31.2 °F 30.2 °F 70% 29.49 in 10.0 mi ESE 13.8 mph - N/A   Mostly Cloudy
4:56 PM 39.2 °F 30.8 °F 28.4 °F 65% 29.50 in 10.0 mi SE 15.0 mph - N/A   Overcast
5:16 PM 39.2 °F 31.2 °F 28.4 °F 65% 29.50 in 10.0 mi SE 13.8 mph - N/A   Overcast
5:36 PM 39.2 °F 29.8 °F 28.4 °F 65% 29.50 in 10.0 mi SE 18.4 mph - N/A   Overcast
5:56 PM 39.2 °F 29.8 °F 26.6 °F 61% 29.50 in 10.0 mi SE 18.4 mph - N/A   Partly Cloudy
6:16 PM 39.2 °F 30.8 °F 28.4 °F 65% 29.50 in 10.0 mi ESE 15.0 mph - N/A   Partly Cloudy
6:36 PM 39.2 °F 30.8 °F 28.4 °F 65% 29.50 in 10.0 mi SE 15.0 mph 19.6 mph N/A   Partly Cloudy
6:56 PM 39.2 °F 29.8 °F 28.4 °F 65% 29.50 in 10.0 mi SE 18.4 mph 24.2 mph N/A   Partly Cloudy
7:16 PM 37.4 °F 27.5 °F 30.2 °F 75% 29.50 in 10.0 mi ESE 18.4 mph - N/A   Partly Cloudy
7:36 PM 37.4 °F 27.8 °F 28.4 °F 70% 29.51 in 10.0 mi ESE 17.3 mph - N/A   Partly Cloudy
7:56 PM 37.4 °F 28.2 °F 28.4 °F 70% 29.50 in 10.0 mi SE 16.1 mph 25.3 mph N/A   Overcast
8:16 PM 37.4 °F 27.5 °F 30.2 °F 75% 29.50 in 10.0 mi ESE 18.4 mph - N/A   Overcast
8:36 PM 37.4 °F 27.5 °F 30.2 °F 75% 29.50 in 10.0 mi ESE 18.4 mph 25.3 mph N/A   Overcast
8:56 PM 37.4 °F 27.5 °F 30.2 °F 75% 29.50 in 10.0 mi SE 18.4 mph 24.2 mph N/A   Mostly Cloudy
9:16 PM 37.4 °F 27.2 °F 30.2 °F 75% 29.49 in 10.0 mi SE 19.6 mph 25.3 mph N/A   Mostly Cloudy
9:36 PM 39.2 °F 30.2 °F 30.2 °F 70% 29.49 in 10.0 mi ESE 17.3 mph 23.0 mph N/A   Mostly Cloudy
9:56 PM 37.4 °F 26.4 °F 30.2 °F 75% 29.48 in 10.0 mi ESE 23.0 mph 28.8 mph 0.01 in   Mostly Cloudy
10:16 PM 37.4 °F 27.5 °F 30.2 °F 75% 29.49 in 10.0 mi SE 18.4 mph 25.3 mph N/A   Mostly Cloudy
10:36 PM 37.4 °F 26.9 °F 30.2 °F 75% 29.49 in 10.0 mi SE 20.7 mph 27.6 mph N/A   Mostly Cloudy
10:56 PM 37.4 °F 27.2 °F 30.2 °F 75% 29.49 in 10.0 mi ESE 19.6 mph 25.3 mph 0.01 in   Mostly Cloudy
11:16 PM 37.4 °F 26.9 °F 30.2 °F 75% 29.49 in 10.0 mi ESE 20.7 mph 24.2 mph 0.01 in   Overcast
11:36 PM 37.4 °F 28.9 °F 32.0 °F 81% 29.49 in 10.0 mi ESE 13.8 mph - 0.01 in   Overcast
11:56 PM 37.4 °F 28.5 °F 30.2 °F 75% 29.49 in 10.0 mi ESE 15.0 mph 20.7 mph 0.02 in   Overcast